Weather History for KILM - March, 2014

Change the Weather History Date:

Sunday, March 16, 2014

  Actual Average Record
Temperature  
Mean Temperature 53 °F 55 °F  
Max Temperature 58 °F 66 °F 85 °F (1977)
Min Temperature 48 °F 44 °F 22 °F (1890)
Degree Days  
Heating Degree Days 12 10  
Month to date heating degree days 228 195  
Since 1 July heating degree days 2162 2124  
Cooling Degree Days 0 1  
Month to date cooling degree days 0 1  
Year to date cooling degree days 5 6  
Growing Degree Days 2 (Base 50)    
Moisture  
Dew Point 49 °F    
Average Humidity 80    
Maximum Humidity 93    
Minimum Humidity 66    
Precipitation  
Precipitation 0.45 in 0.14 in 1.45 in (2009)
Month to date precipitation 2.67 2.25  
Year to date precipitation 8.13 9.63  
Snow  
Snow 0.00 in 0.00 in - ()
Month to date snowfall 0.0 0.1  
Since 1 July snowfall 1.0 1.6  
Snow Depth 0.00 in    
Sea Level Pressure  
Sea Level Pressure 29.91 in    
Wind  
Wind Speed 6 mph (ENE)    
Max Wind Speed 20 mph    
Max Gust Speed 24 mph    
Visibility 7 miles    
Events Rain    
T = Trace of Precipitation, MM = Missing Value Source: NWS Daily Summary

Daily Weather History Graph

Daily Weather History Graph

Search for Another Location

Airport or City:

Trip Planner

Search our weather history database for the weather conditions in past years. The results will help you decide how hot, cold, wet, or windy it might be!

Date:

Astronomy

Mar. 16, 2014 Rise Set
Actual Time 7:20 AM EDT 7:20 PM EDT
Civil Twilight 6:55 AM EDT 7:45 PM EDT
Nautical Twilight 6:26 AM EDT 8:14 PM EDT
Astronomical Twilight 5:57 AM EDT 8:43 PM EDT
Moon 7:33 PM EDT (3/16) 7:04 AM EDT (3/16)
Length of Visible Light 12h 49m
Length of Day
11h 59m
Full, 100% of the Moon is Illuminated
Mar 16
Full
Mar 16
Full
Mar 23
Last Quarter
Mar 30
New
Apr 7
First Quarter

Hourly Weather History & Observations

Time (EDT) Temp. Dew Point Humidity Pressure Visibility Wind Dir Wind Speed Gust Speed Precip Events Conditions
12:53 AM 54.0 °F 42.1 °F 64% 30.05 in 10.0 mi SSW 3.5 mph - N/A   Clear
1:53 AM 52.0 °F 43.0 °F 71% 30.05 in 10.0 mi Calm Calm - N/A   Clear
2:53 AM 52.0 °F 42.1 °F 69% 30.04 in 10.0 mi SW 3.5 mph - N/A   Clear
3:53 AM 52.0 °F 42.1 °F 69% 30.03 in 10.0 mi Calm Calm - N/A   Clear
4:53 AM 50.0 °F 42.1 °F 74% 30.02 in 10.0 mi Calm Calm - N/A   Scattered Clouds
5:53 AM 48.9 °F 44.1 °F 83% 30.01 in 10.0 mi Calm Calm - N/A   Scattered Clouds
6:53 AM 48.0 °F 43.0 °F 83% 30.00 in 10.0 mi NE 3.5 mph - N/A   Scattered Clouds
7:53 AM 50.0 °F 44.1 °F 80% 30.01 in 10.0 mi NNE 5.8 mph - N/A   Clear
8:53 AM 54.0 °F 45.0 °F 72% 30.02 in 10.0 mi South 3.5 mph - N/A   Mostly Cloudy
9:53 AM 55.9 °F 46.9 °F 72% 30.01 in 10.0 mi Calm Calm - 0.00 in Rain Light Rain
10:53 AM 55.9 °F 50.0 °F 80% 29.99 in 6.0 mi NE 3.5 mph - 0.00 in   Haze
11:53 AM 57.9 °F 48.0 °F 70% 29.99 in 8.0 mi Calm Calm - 0.00 in Rain Light Rain
12:53 PM 57.0 °F 48.9 °F 74% 29.98 in 6.0 mi NE 8.1 mph - 0.00 in Rain Light Rain
1:53 PM 55.9 °F 52.0 °F 87% 29.99 in 4.0 mi East 5.8 mph - 0.02 in Rain Light Rain
2:53 PM 55.9 °F 52.0 °F 87% 29.96 in 3.0 mi ENE 6.9 mph - 0.07 in Rain Light Rain
3:49 PM 53.6 °F 48.2 °F 82% 29.94 in 1.8 mi East 8.1 mph - 0.06 in Rain Heavy Rain
3:50 PM 53.1 °F 48.9 °F 86% 29.94 in 1.8 mi East 9.2 mph - 0.07 in Rain Heavy Rain
4:01 PM 53.1 °F 48.9 °F 86% 29.92 in 3.0 mi ENE 10.4 mph - 0.03 in Rain Light Rain
4:53 PM 53.1 °F 50.0 °F 89% 29.92 in 2.5 mi East 5.8 mph - 0.07 in Rain Rain
5:12 PM 53.1 °F 50.0 °F 89% 29.89 in 4.0 mi East 9.2 mph - 0.04 in Rain Light Rain
5:34 PM 53.1 °F 50.0 °F 89% 29.88 in 2.5 mi East 11.5 mph - 0.08 in Rain Rain
5:44 PM 53.1 °F 50.0 °F 89% 29.88 in 4.0 mi East 10.4 mph - 0.09 in Rain Light Rain
5:53 PM 53.1 °F 50.0 °F 89% 29.88 in 5.0 mi East 10.4 mph - 0.09 in Rain Light Rain
6:11 PM 53.1 °F 50.0 °F 89% 29.87 in 2.5 mi East 11.5 mph - 0.02 in Rain Light Rain
6:19 PM 53.1 °F 51.1 °F 93% 29.86 in 3.0 mi East 10.4 mph - 0.03 in Rain Light Rain
6:43 PM 54.0 °F 51.1 °F 90% 29.86 in 5.0 mi East 11.5 mph - 0.03 in Rain Light Rain
6:53 PM 54.0 °F 51.1 °F 90% 29.86 in 6.0 mi East 11.5 mph - 0.04 in Rain Light Rain
7:18 PM 54.0 °F 52.0 °F 93% 29.83 in 10.0 mi East 12.7 mph 23.0 mph 0.00 in Rain Light Rain
7:35 PM 54.0 °F 52.0 °F 93% 29.82 in 10.0 mi East 13.8 mph - 0.01 in Rain Light Rain
7:53 PM 55.0 °F 52.0 °F 89% 29.81 in 10.0 mi East 11.5 mph 24.2 mph 0.01 in   Overcast
8:37 PM 55.0 °F 52.0 °F 89% 29.81 in 7.0 mi East 11.5 mph - 0.00 in Rain Light Rain
8:53 PM 55.0 °F 52.0 °F 89% 29.79 in 7.0 mi ENE 16.1 mph - 0.01 in Rain Light Rain
9:17 PM 55.0 °F 53.1 °F 93% 29.80 in 8.0 mi North 8.1 mph - 0.00 in Rain Light Rain
9:29 PM 55.0 °F 53.1 °F 93% 29.80 in 5.0 mi ENE 10.4 mph - 0.01 in Rain Rain
9:53 PM 55.0 °F 53.1 °F 93% 29.81 in 8.0 mi NE 10.4 mph - 0.02 in Rain Light Rain
10:27 PM 55.0 °F 53.1 °F 93% 29.79 in 8.0 mi ENE 8.1 mph - 0.00 in Rain Light Rain
10:53 PM 55.0 °F 53.1 °F 93% 29.78 in 8.0 mi East 8.1 mph - 0.00 in Rain Light Rain
11:14 PM 55.0 °F 53.1 °F 93% 29.78 in 6.0 mi ENE 8.1 mph - 0.01 in Rain Light Rain
11:53 PM 55.0 °F 53.1 °F 93% 29.75 in 9.0 mi ENE 5.8 mph - 0.03 in Rain Light Rain